Weather History for Branson West Muni - Emerson F, MO

Change the Weather History Date:

Friday, January 10, 2014

  Actual Average (KHRO) Record (KHRO)
Temperature  
Mean Temperature 41 °F 36 °F  
Max Temperature 50 °F 46 °F 71 °F (1990)
Min Temperature 32 °F 26 °F -6 °F (1982)
Degree Days  
Heating Degree Days 24 29  
Month to date heating degree days 290  
Since 1 July heating degree days 1889  
Cooling Degree Days 0 0  
Month to date cooling degree days 0  
Year to date cooling degree days 0  
Moisture  
Dew Point 41 °F    
Average Humidity 97    
Maximum Humidity 100    
Minimum Humidity 76    
Precipitation  
Precipitation 0.22 in 0.08 in 1.08 in (1975)
Month to date precipitation 0.84  
Year to date precipitation 0.84  
Snow  
Snow 0.00 in 0.10 in 11.00 in (1955)
Month to date snowfall 1.0  
Since 1 July snowfall 2.8  
Snow Depth -    
Sea Level Pressure  
Sea Level Pressure 29.78 in    
Wind  
Wind Speed 7 mph (SE)    
Max Wind Speed 18 mph    
Max Gust Speed 34 mph    
Visibility 4 miles    
Events Fog , Rain , Thunderstorm    
T = Trace of Precipitation, MM = Missing Value Source: NWS Daily Summary

Daily Weather History Graph

Daily Weather History Graph

Search for Another Location

Airport:

Trip Planner

Search our weather history database for the weather conditions in past years. The results will help you decide how hot, cold, wet, or windy it might be!

Date:

Astronomy

Jan. 10, 2014 Rise Set
Actual Time 7:26 AM CST 5:16 PM CST
Civil Twilight 6:57 AM CST 5:44 PM CST
Nautical Twilight 6:25 AM CST 6:16 PM CST
Astronomical Twilight 5:54 AM CST 6:48 PM CST
Moon 1:18 PM CST (1/10) 2:36 AM CST (1/10)
Length of Visible Light 10h 47m
Length of Day
9h 50m
Waxing Gibbous, 75% of the Moon is Illuminated
Jan 10
Waxing Gibbous
Jan 15
Full
Jan 23
Last Quarter
Jan 30
New
Feb 6
First Quarter

Hourly Weather History & Observations

Time (CST) Temp. Windchill Dew Point Humidity Pressure Visibility Wind Dir Wind Speed Gust Speed Precip Events Conditions
12:15 AM 32.0 °F 24.8 °F 32.0 °F 100% 30.04 in 0.2 mi ESE 8.1 mph - N/A Fog Fog
12:35 AM 33.8 °F 27.7 °F 33.8 °F 100% 30.04 in 0.2 mi East 6.9 mph - N/A Fog Fog
12:55 AM 33.8 °F 27.7 °F 33.8 °F 100% 30.03 in 0.2 mi ESE 6.9 mph - N/A Fog Fog
1:15 AM 33.8 °F 25.8 °F 33.8 °F 100% 30.02 in 0.2 mi ESE 10.4 mph - N/A Fog Fog
1:35 AM 33.8 °F 27.7 °F 33.8 °F 100% 30.01 in 0.2 mi ESE 6.9 mph - N/A Fog Fog
1:55 AM 32.0 °F 24.2 °F 32.0 °F 100% 30.00 in 0.2 mi ESE 9.2 mph - N/A Fog Fog
2:15 AM 33.8 °F 27.7 °F 33.8 °F 100% 29.99 in 0.2 mi ESE 6.9 mph - N/A Fog Fog
2:35 AM 32.0 °F 25.6 °F 32.0 °F 100% 29.98 in 0.2 mi ESE 6.9 mph - N/A Fog Fog
2:55 AM 33.8 °F 28.6 °F 33.8 °F 100% 29.98 in 0.2 mi East 5.8 mph - N/A Fog Fog
3:15 AM 33.8 °F 28.6 °F 33.8 °F 100% 29.97 in 0.2 mi ENE 5.8 mph - N/A Fog Fog
3:35 AM 32.0 °F 25.6 °F 32.0 °F 100% 29.96 in 0.2 mi East 6.9 mph - N/A Fog Fog
3:55 AM 33.8 °F 27.7 °F 33.8 °F 100% 29.95 in 0.2 mi East 6.9 mph - N/A Fog Fog
4:15 AM 33.8 °F 27.0 °F 33.8 °F 100% 29.94 in 0.2 mi ESE 8.1 mph - N/A Fog Fog
4:35 AM 33.8 °F 27.0 °F 33.8 °F 100% 29.94 in 0.2 mi ESE 8.1 mph - N/A Rain Light Rain
4:55 AM 33.8 °F 27.7 °F 33.8 °F 100% 29.93 in 0.2 mi East 6.9 mph - N/A Fog Fog
5:15 AM 33.8 °F 27.0 °F 33.8 °F 100% 29.92 in 0.2 mi East 8.1 mph - N/A Fog Fog
5:35 AM 33.8 °F 27.7 °F 33.8 °F 100% 29.91 in 0.2 mi ENE 6.9 mph - N/A Fog Fog
5:55 AM 33.8 °F 28.6 °F 33.8 °F 100% 29.90 in 0.2 mi East 5.8 mph - N/A Fog Fog
6:15 AM 33.8 °F 27.0 °F 33.8 °F 100% 29.89 in 0.2 mi East 8.1 mph - N/A Fog Fog
6:35 AM 35.6 °F 32.8 °F 35.6 °F 100% 29.89 in 0.2 mi ESE 3.5 mph - N/A Fog Fog
6:55 AM 35.6 °F 32.8 °F 35.6 °F 100% 29.89 in 0.2 mi East 3.5 mph - N/A Fog Fog
7:15 AM 35.6 °F 32.8 °F 35.6 °F 100% 29.88 in 0.2 mi East 3.5 mph - N/A Fog Fog
7:35 AM 35.6 °F 30.7 °F 35.6 °F 100% 29.87 in 0.2 mi East 5.8 mph - N/A Fog Fog
7:55 AM 35.6 °F 29.9 °F 35.6 °F 100% 29.86 in 0.2 mi ESE 6.9 mph - N/A Fog Fog
8:15 AM 37.4 °F 33.8 °F 37.4 °F 100% 29.84 in 0.2 mi East 4.6 mph - N/A Fog Fog
8:35 AM 37.4 °F 33.8 °F 37.4 °F 100% 29.84 in 0.2 mi NE 4.6 mph - N/A Fog Fog
8:55 AM 37.4 °F 32.8 °F 37.4 °F 100% 29.83 in 0.2 mi ENE 5.8 mph - N/A Fog Fog
9:15 AM 37.4 °F 32.8 °F 37.4 °F 100% 29.84 in 0.2 mi East 5.8 mph - N/A Fog Fog
9:35 AM 39.2 °F 37.0 °F 39.2 °F 100% 29.83 in 0.2 mi East 3.5 mph - N/A Fog , Thunderstorm Fog
9:55 AM 39.2 °F 33.6 °F 39.2 °F 100% 29.82 in 0.2 mi ESE 8.1 mph - N/A Rain Light Rain
10:15 AM 39.2 °F 37.0 °F 39.2 °F 100% 29.84 in 0.2 mi East 3.5 mph - 0.03 in Rain , Thunderstorm Light Thunderstorms and Rain
10:35 AM 42.8 °F 38.6 °F 42.8 °F 100% 29.82 in 0.2 mi SE 6.9 mph - 0.05 in Rain , Thunderstorm Light Rain
10:55 AM 46.4 °F 44.3 °F 46.4 °F 100% 29.80 in 0.5 mi SSE 4.6 mph - 0.07 in Rain , Thunderstorm Light Rain
11:15 AM 46.4 °F 45.2 °F 46.4 °F 100% 29.79 in 1.8 mi WSW 3.5 mph - N/A   Mist
11:35 AM 46.4 °F - 46.4 °F 100% 29.78 in 0.2 mi Calm Calm - N/A Rain Light Rain
11:55 AM 44.6 °F - 44.6 °F 100% 29.77 in 0.2 mi Calm Calm - 0.01 in Rain Light Rain
12:35 PM 46.4 °F 43.5 °F 46.4 °F 100% 29.73 in 1.2 mi South 5.8 mph - N/A Rain Light Rain
12:55 PM 48.2 °F - 48.2 °F 100% 29.71 in 3.0 mi South 6.9 mph - 0.01 in Rain Light Rain
1:15 PM 48.2 °F - 48.2 °F 100% 29.70 in 3.0 mi South 5.8 mph - N/A   Mostly Cloudy
1:35 PM 48.2 °F - 48.2 °F 100% 29.68 in 4.0 mi SE 6.9 mph - N/A   Scattered Clouds
1:55 PM 48.2 °F - 48.2 °F 100% 29.65 in 5.0 mi SE 10.4 mph 18.4 mph N/A   Partly Cloudy
2:15 PM 48.2 °F - 48.2 °F 100% 29.64 in 10.0 mi SSE 9.2 mph 17.3 mph N/A   Partly Cloudy
2:35 PM 50.0 °F - 50.0 °F 100% 29.63 in 10.0 mi SE 6.9 mph 19.6 mph N/A   Scattered Clouds
2:55 PM 50.0 °F - 50.0 °F 100% 29.60 in 10.0 mi SSE 10.4 mph 20.7 mph N/A   Scattered Clouds
3:15 PM 50.0 °F - 50.0 °F 100% 29.63 in 10.0 mi South 9.2 mph 19.6 mph N/A   Scattered Clouds
3:35 PM 50.0 °F - 48.2 °F 94% 29.62 in 10.0 mi SE 4.6 mph - N/A   Scattered Clouds
3:55 PM 50.0 °F - 48.2 °F 94% 29.63 in 10.0 mi SSE 3.5 mph - N/A   Scattered Clouds
4:15 PM 50.0 °F - 48.2 °F 94% 29.62 in 10.0 mi Calm Calm - N/A   Scattered Clouds
4:35 PM 50.0 °F - 48.2 °F 94% 29.62 in 10.0 mi Calm Calm - N/A   Mostly Cloudy
4:55 PM 50.0 °F - 48.2 °F 94% 29.62 in 10.0 mi Calm Calm - N/A   Overcast
5:15 PM 50.0 °F - 48.2 °F 94% 29.60 in 10.0 mi SE 4.6 mph - N/A   Overcast
5:35 PM 50.0 °F - 48.2 °F 94% 29.59 in 10.0 mi ESE 3.5 mph - N/A   Overcast
5:55 PM 48.2 °F - 48.2 °F 100% 29.58 in 10.0 mi SE 5.8 mph - N/A   Overcast
6:15 PM 48.2 °F - 48.2 °F 100% 29.59 in 10.0 mi NW 3.5 mph - N/A   Overcast
6:35 PM 48.2 °F - 48.2 °F 100% 29.59 in 10.0 mi East 4.6 mph - N/A   Overcast
6:55 PM 50.0 °F - 48.2 °F 94% 29.61 in 1.0 mi SW 18.4 mph 34.5 mph 0.10 in Rain , Thunderstorm Heavy Thunderstorms and Rain
7:15 PM 50.0 °F - 48.2 °F 94% 29.61 in 2.5 mi SW 8.1 mph 16.1 mph 0.02 in Rain , Thunderstorm Light Rain
7:35 PM 50.0 °F - 50.0 °F 100% 29.62 in 10.0 mi WSW 11.5 mph - 0.03 in   Overcast
7:55 PM 50.0 °F - 50.0 °F 100% 29.63 in 10.0 mi West 9.2 mph 19.6 mph 0.03 in   Mostly Cloudy
8:15 PM 50.0 °F - 48.2 °F 94% 29.64 in 10.0 mi West 12.7 mph - N/A   Mostly Cloudy
8:35 PM 48.2 °F - 44.6 °F 87% 29.66 in 10.0 mi West 17.3 mph 24.2 mph N/A   Mostly Cloudy
8:55 PM 46.4 °F 39.8 °F 41.0 °F 81% 29.67 in 10.0 mi West 16.1 mph 23.0 mph N/A   Scattered Clouds
9:15 PM 44.6 °F 38.4 °F 37.4 °F 76% 29.68 in 10.0 mi West 12.7 mph 19.6 mph N/A   Partly Cloudy
9:35 PM 42.8 °F 35.8 °F 37.4 °F 81% 29.68 in 10.0 mi West 13.8 mph 18.4 mph N/A   Clear
9:55 PM 41.0 °F 35.2 °F 35.6 °F 81% 29.69 in 10.0 mi West 9.2 mph - N/A   Clear
10:15 PM 41.0 °F 36.4 °F 35.6 °F 81% 29.68 in 10.0 mi West 6.9 mph - N/A   Clear
10:35 PM 39.2 °F 35.9 °F 35.6 °F 87% 29.68 in 10.0 mi WSW 4.6 mph - N/A   Clear
10:55 PM 39.2 °F 35.0 °F 35.6 °F 87% 29.68 in 10.0 mi WSW 5.8 mph - N/A   Clear
11:15 PM 39.2 °F 35.9 °F 35.6 °F 87% 29.67 in 10.0 mi West 4.6 mph - N/A   Clear
11:35 PM 37.4 °F 32.1 °F 35.6 °F 93% 29.67 in 10.0 mi WSW 6.9 mph - N/A   Clear
11:55 PM 37.4 °F 32.8 °F 35.6 °F 93% 29.67 in 10.0 mi SW 5.8 mph - N/A   Clear